| time (UTC) | temp F | wind direction | speed MPH | gust MPH | rain 1hr in | rain 24hr in | rain mn in | humidity % | barometer mb |
| 20260508065414 | 54 | 135 | 6.0 | 6.0 | 0.00 | 0.00 | 0.00 | 80 | |
| 20260508064913 | 54 | 136 | 5.0 | 6.0 | 0.00 | 0.00 | 0.00 | 82 | |
| 20260508064410 | 54 | 135 | 5.0 | 6.0 | 0.00 | 0.00 | 0.00 | 83 | |
| 20260508063908 | 53 | 132 | 4.0 | 6.0 | 0.00 | 0.00 | 0.00 | 85 | |
| 20260508063407 | 53 | 126 | 4.0 | 6.0 | 0.00 | 0.00 | 0.00 | 86 | |
| 20260508062906 | 53 | 127 | 3.0 | 6.0 | 0.00 | 0.00 | 0.00 | 87 | |
| 20260508062405 | 52 | 134 | 4.0 | 6.0 | 0.00 | 0.00 | 0.00 | 88 | |
| 20260508061904 | 52 | 136 | 5.0 | 7.0 | 0.00 | 0.00 | 0.00 | 88 | |
| 20260508061404 | 52 | 135 | 5.0 | 8.0 | 0.00 | 0.00 | 0.00 | 88 | |
| 20260508060903 | 52 | 135 | 5.0 | 8.0 | 0.00 | 0.00 | 0.00 | 88 | |
| 20260508060402 | 53 | 136 | 6.0 | 8.0 | 0.00 | 0.00 | 0.00 | 88 | |
| 20260508055901 | 53 | 137 | 6.0 | 8.0 | 0.00 | 0.00 | 0.00 | 88 | |
| 20260508055400 | 53 | 139 | 7.0 | 8.0 | 0.00 | 0.00 | 0.00 | 88 | |
| 20260508054859 | 53 | 138 | 7.0 | 8.0 | 0.00 | 0.00 | 0.00 | 88 | |
| 20260508054359 | 53 | 136 | 6.0 | 8.0 | 0.00 | 0.00 | 0.00 | 87 | |
| 20260508053858 | 53 | 135 | 5.0 | 8.0 | 0.00 | 0.00 | 0.00 | 86 | |
| 20260508053357 | 53 | 131 | 5.0 | 8.0 | 0.00 | 0.00 | 0.00 | 86 | |
| 20260508052856 | 53 | 137 | 5.0 | 9.0 | 0.00 | 0.00 | 0.00 | 86 | |
| 20260508052355 | 53 | 150 | 7.0 | 10.0 | 0.00 | 0.00 | 0.00 | 85 | |
| 20260508051854 | 53 | 163 | 6.0 | 10.0 | 0.00 | 0.00 | 0.00 | 84 | |
| 20260508051353 | 53 | 174 | 8.0 | 12.0 | 0.00 | 0.00 | 0.00 | 83 | |
| 20260508050852 | 53 | 173 | 8.0 | 12.0 | 0.00 | 0.00 | 0.00 | 82 | |
| 20260508050352 | 53 | 180 | 7.0 | 11.0 | 0.00 | 0.00 | 0.00 | 80 | |
| 20260508045848 | 53 | 177 | 8.0 | 10.0 | 0.00 | 0.00 | 0.00 | 79 | |
| 20260508045347 | 53 | 178 | 8.0 | 10.0 | 0.00 | 0.00 | 0.00 | 76 | |
| 20260508044846 | 54 | 179 | 7.0 | 10.0 | 0.00 | 0.00 | 0.00 | 73 | |
| 20260508044345 | 54 | 181 | 7.0 | 9.0 | 0.00 | 0.00 | 0.00 | 69 | |
| 20260508043844 | 54 | 180 | 6.0 | 11.0 | 0.00 | 0.00 | 0.00 | 64 | |
| 20260508043344 | 54 | 203 | 9.0 | 13.0 | 0.00 | 0.00 | 0.00 | 58 | |
| 20260508042840 | 55 | 222 | 10.0 | 13.0 | 0.00 | 0.00 | 0.00 | 56 | |
| 20260508042339 | 55 | 215 | 11.0 | 13.0 | 0.00 | 0.00 | 0.00 | 53 | |
| 20260508041838 | 55 | 223 | 11.0 | 12.0 | 0.00 | 0.00 | 0.00 | 53 | |
| 20260508041335 | 55 | 215 | 9.0 | 16.0 | 0.00 | 0.00 | 0.00 | 51 | |
| 20260508040833 | 55 | 224 | 12.0 | 17.0 | 0.00 | 0.00 | 0.00 | 48 | |
| 20260508040333 | 54 | 224 | 12.0 | 17.0 | 0.00 | 0.00 | 0.00 | 51 | |
| 20260508035832 | 53 | 220 | 11.0 | 13.0 | 0.00 | 0.00 | 0.00 | 58 | |
| 20260508035331 | 54 | 193 | 9.0 | 11.0 | 0.00 | 0.00 | 0.00 | 67 | |
| 20260508034830 | 54 | 193 | 7.0 | 11.0 | 0.00 | 0.00 | 0.00 | 61 | |
| 20260508034329 | 54 | 220 | 8.0 | 10.0 | 0.00 | 0.00 | 0.00 | 59 | |
| 20260508033828 | 53 | 224 | 8.0 | 9.0 | 0.00 | 0.00 | 0.00 | 60 | |
| 20260508033327 | 54 | 186 | 7.0 | 9.0 | 0.00 | 0.00 | 0.00 | 65 | |
| 20260508032827 | 54 | 182 | 8.0 | 9.0 | 0.00 | 0.00 | 0.00 | 62 | |
| 20260508032326 | 55 | 216 | 7.0 | 9.0 | 0.00 | 0.00 | 0.00 | 55 | |
| 20260508031825 | 55 | 197 | 6.0 | 9.0 | 0.00 | 0.00 | 0.00 | 51 | |
| 20260508031324 | 56 | 220 | 7.0 | 9.0 | 0.00 | 0.00 | 0.00 | 41 | |
| 20260508030823 | 56 | 226 | 7.0 | 9.0 | 0.00 | 0.00 | 0.00 | 40 | |
| 20260508030322 | 56 | 225 | 7.0 | 9.0 | 0.00 | 0.00 | 0.00 | 39 | |
| 20260508025822 | 56 | 225 | 7.0 | 9.0 | 0.00 | 0.00 | 0.00 | 38 | |
| 20260508025321 | 56 | 225 | 8.0 | 9.0 | 0.00 | 0.00 | 0.00 | 38 | |
| 20260508024820 | 56 | 225 | 7.0 | 7.0 | 0.00 | 0.00 | 0.00 | 37 | |
| 20260508024319 | 56 | 225 | 6.0 | 7.0 | 0.00 | 0.00 | 0.00 | 36 | |
| 20260508023818 | 56 | 225 | 6.0 | 7.0 | 0.00 | 0.00 | 0.00 | 36 | |
| 20260508023317 | 56 | 225 | 6.0 | 8.0 | 0.00 | 0.00 | 0.00 | 36 | |
| 20260508022816 | 56 | 225 | 7.0 | 8.0 | 0.00 | 0.00 | 0.00 | 36 | |
| 20260508022316 | 56 | 245 | 7.0 | 7.0 | 0.00 | 0.00 | 0.00 | 36 | |
| 20260508021815 | 56 | 226 | 6.0 | 7.0 | 0.00 | 0.00 | 0.00 | 35 | |
| 20260508021314 | 56 | 270 | 6.0 | 6.0 | 0.00 | 0.00 | 0.00 | 35 | |
| 20260508020813 | 56 | 233 | 6.0 | 6.0 | 0.00 | 0.00 | 0.00 | 35 | |
| 20260508020312 | 56 | 270 | 6.0 | 7.0 | 0.00 | 0.00 | 0.00 | 35 | |
| 20260508015811 | 56 | 270 | 6.0 | 7.0 | 0.00 | 0.00 | 0.00 | 35 | |
| 20260508015308 | 57 | 270 | 7.0 | 7.0 | 0.00 | 0.00 | 0.00 | 35 | |
| 20260508014807 | 56 | 270 | 6.0 | 7.0 | 0.00 | 0.00 | 0.00 | 34 | |
| 20260508014306 | 56 | 270 | 6.0 | 6.0 | 0.00 | 0.00 | 0.00 | 36 | |
| 20260508013805 | 56 | 270 | 5.0 | 6.0 | 0.00 | 0.00 | 0.00 | 37 | |
| 20260508013304 | 57 | 270 | 6.0 | 8.0 | 0.00 | 0.00 | 0.00 | 36 | |
| 20260508012801 | 57 | 270 | 7.0 | 8.0 | 0.00 | 0.00 | 0.00 | 36 | |
| 20260508012300 | 56 | 270 | 7.0 | 9.0 | 0.00 | 0.00 | 0.00 | 38 | |
| 20260508011759 | 57 | 270 | 8.0 | 9.0 | 0.00 | 0.00 | 0.00 | 40 | |
| 20260508011258 | 57 | 270 | 7.0 | 8.0 | 0.00 | 0.00 | 0.00 | 41 | |
| 20260508010757 | 57 | 270 | 8.0 | 8.0 | 0.00 | 0.00 | 0.00 | 42 | |
| 20260508010256 | 56 | 270 | 6.0 | 8.0 | 0.00 | 0.00 | 0.00 | 38 | |
| 20260508005755 | 56 | 270 | 7.0 | 8.0 | 0.00 | 0.00 | 0.00 | 37 | |
| 20260508005255 | 57 | 270 | 7.0 | 8.0 | 0.00 | 0.00 | 0.00 | 38 | |
| 20260508004754 | 56 | 270 | 8.0 | 8.0 | 0.00 | 0.00 | 0.00 | 40 | |
| 20260508004253 | 56 | 270 | 6.0 | 8.0 | 0.00 | 0.00 | 0.00 | 39 | |
| 20260508003752 | 56 | 270 | 7.0 | 8.0 | 0.00 | 0.00 | 0.00 | 39 | |
| 20260508003251 | 56 | 270 | 8.0 | 8.0 | 0.00 | 0.00 | 0.00 | 39 | |
| 20260508002750 | 56 | 270 | 7.0 | 8.0 | 0.00 | 0.00 | 0.00 | 41 | |
| 20260508002247 | 56 | 270 | 6.0 | 7.0 | 0.00 | 0.00 | 0.00 | 42 | |
| 20260508001746 | 56 | 270 | 6.0 | 7.0 | 0.00 | 0.00 | 0.00 | 43 | |
| 20260508001245 | 56 | 270 | 7.0 | 7.0 | 0.00 | 0.00 | 0.00 | 47 | |
| 20260508000744 | 56 | 270 | 7.0 | 7.0 | 0.00 | 0.00 | 0.00 | 54 | |
| 20260508000243 | 56 | 270 | 6.0 | 7.0 | 0.00 | 0.00 | 0.00 | 49 | |
| 20260507235742 | 56 | 270 | 6.0 | 7.0 | 0.00 | 0.00 | 0.00 | 50 | |
| 20260507235242 | 56 | 270 | 6.0 | 6.0 | 0.00 | 0.00 | 0.00 | 53 | |
| 20260507234741 | 56 | 270 | 6.0 | 6.0 | 0.00 | 0.00 | 0.00 | 52 | |
| 20260507234240 | 56 | 270 | 6.0 | 7.0 | 0.00 | 0.00 | 0.00 | 55 | |
| 20260507233739 | 56 | 315 | 7.0 | 8.0 | 0.00 | 0.00 | 0.00 | 58 | |
| 20260507233238 | 56 | 315 | 7.0 | 8.0 | 0.00 | 0.00 | 0.00 | 59 | |
| 20260507232737 | 56 | 315 | 6.0 | 6.0 | 0.00 | 0.00 | 0.00 | 54 | |
| 20260507232236 | 56 | 315 | 4.0 | 7.0 | 0.00 | 0.00 | 0.00 | 52 | |
| 20260507231736 | 56 | 316 | 6.0 | 8.0 | 0.00 | 0.00 | 0.00 | 54 | |
| 20260507231235 | 56 | 316 | 7.0 | 8.0 | 0.00 | 0.00 | 0.00 | 54 | |
| 20260507230731 | 56 | 315 | 6.0 | 7.0 | 0.00 | 0.00 | 0.00 | 54 | |
| 20260507230230 | 56 | 315 | 5.0 | 5.0 | 0.00 | 0.00 | 0.00 | 54 | |
| 20260507225730 | 56 | 315 | 5.0 | 6.0 | 0.00 | 0.00 | 0.00 | 55 | |
| 20260507225229 | 56 | 315 | 5.0 | 6.0 | 0.00 | 0.00 | 0.00 | 56 | |
| 20260507224728 | 56 | 315 | 3.0 | 6.0 | 0.00 | 0.00 | 0.00 | 56 | |
| 20260507224227 | 56 | 315 | 4.0 | 6.0 | 0.00 | 0.00 | 0.00 | 55 | |
| 20260507223726 | 56 | 316 | 5.0 | 6.0 | 0.00 | 0.00 | 0.00 | 55 | |
| 20260507223224 | 56 | 319 | 5.0 | 6.0 | 0.00 | 0.00 | 0.00 | 55 | |
| 20260507222724 | 56 | 315 | 5.0 | 6.0 | 0.00 | 0.00 | 0.00 | 55 | |
| 20260507222223 | 56 | 318 | 4.0 | 6.0 | 0.00 | 0.00 | 0.00 | 54 | |
| 20260507221722 | 56 | 0 | 6.0 | 6.0 | 0.00 | 0.00 | 0.00 | 54 | |
| 20260507221221 | 56 | 0 | 6.0 | 6.0 | 0.00 | 0.00 | 0.00 | 54 | |
| 20260507220720 | 56 | 334 | 5.0 | 5.0 | 0.00 | 0.00 | 0.00 | 54 | |
| 20260507220219 | 56 | 0 | 3.0 | 4.0 | 0.00 | 0.00 | 0.00 | 55 | |
| 20260507215718 | 56 | 0 | 3.0 | 5.0 | 0.00 | 0.00 | 0.00 | 55 | |
| 20260507215217 | 56 | 0 | 4.0 | 5.0 | 0.00 | 0.00 | 0.00 | 55 | |
| 20260507214716 | 56 | 2 | 3.0 | 6.0 | 0.00 | 0.00 | 0.00 | 55 | |
| 20260507214216 | 56 | 0 | 5.0 | 6.0 | 0.00 | 0.00 | 0.00 | 56 | |
| 20260507213715 | 56 | 2 | 5.0 | 6.0 | 0.00 | 0.00 | 0.00 | 57 | |
| 20260507213214 | 55 | 0 | 4.0 | 5.0 | 0.00 | 0.00 | 0.00 | 59 | |
| 20260507212710 | 55 | 0 | 3.0 | 5.0 | 0.00 | 0.00 | 0.00 | 61 | |
| 20260507212209 | 55 | 135 | 3.0 | 5.0 | 0.00 | 0.00 | 0.00 | 62 | |
| 20260507211708 | 55 | 155 | 4.0 | 6.0 | 0.00 | 0.00 | 0.00 | 62 | |
| 20260507211208 | 55 | 174 | 4.0 | 7.0 | 0.00 | 0.00 | 0.00 | 62 | |
| 20260507210707 | 55 | 175 | 5.0 | 7.0 | 0.00 | 0.00 | 0.00 | 62 | |
| 20260507210206 | 55 | 174 | 3.0 | 4.0 | 0.00 | 0.00 | 0.00 | 62 | |
| 20260507205705 | 56 | 180 | 4.0 | 4.0 | 0.00 | 0.00 | 0.00 | 62 | |
| 20260507205201 | 56 | 175 | 1.0 | 4.0 | 0.00 | 0.00 | 0.00 | 64 | |
| 20260507204701 | 57 | 43 | 2.0 | 4.0 | 0.00 | 0.00 | 0.00 | 64 | |
| 20260507204200 | 57 | 44 | 3.0 | 4.0 | 0.00 | 0.00 | 0.00 | 63 | |
| 20260507203659 | 57 | 3 | 2.0 | 5.0 | 0.00 | 0.00 | 0.00 | 62 | |
| 20260507203158 | 56 | 315 | 4.0 | 6.0 | 0.00 | 0.00 | 0.00 | 61 | |
| 20260507202657 | 56 | 59 | 3.0 | 6.0 | 0.00 | 0.00 | 0.00 | 60 | |
| 20260507202154 | 56 | 135 | 5.0 | 6.0 | 0.00 | 0.00 | 0.00 | 56 | |
| 20260507201653 | 55 | 135 | 5.0 | 7.0 | 0.00 | 0.00 | 0.00 | 54 | |
| 20260507201152 | 56 | 135 | 7.0 | 8.0 | 0.00 | 0.00 | 0.00 | 52 | |
| 20260507200648 | 56 | 136 | 7.0 | 8.0 | 0.00 | 0.00 | 0.00 | 55 | |
| 20260507200148 | 56 | 135 | 6.0 | 8.0 | 0.00 | 0.00 | 0.00 | 55 | |
| 20260507195647 | 56 | 133 | 5.0 | 7.0 | 0.00 | 0.00 | 0.00 | 54 | |
| 20260507195146 | 56 | 138 | 6.0 | 7.0 | 0.00 | 0.00 | 0.00 | 52 | |
| 20260507194645 | 56 | 141 | 5.0 | 7.0 | 0.00 | 0.00 | 0.00 | 52 | |
| 20260507194142 | 56 | 148 | 6.0 | 7.0 | 0.00 | 0.00 | 0.00 | 51 | |
| 20260507193641 | 56 | 151 | 6.0 | 7.0 | 0.00 | 0.00 | 0.00 | 51 | |
| 20260507193140 | 56 | 154 | 5.0 | 6.0 | 0.00 | 0.00 | 0.00 | 51 | |
| 20260507192636 | 56 | 144 | 5.0 | 6.0 | 0.00 | 0.00 | 0.00 | 51 | |
| 20260507192135 | 56 | 140 | 4.0 | 6.0 | 0.00 | 0.00 | 0.00 | 50 | |
| 20260507191634 | 56 | 150 | 4.0 | 6.0 | 0.00 | 0.00 | 0.00 | 50 | |
| 20260507191134 | 56 | 155 | 5.0 | 7.0 | 0.00 | 0.00 | 0.00 | 49 | |
| 20260507190633 | 56 | 144 | 4.0 | 7.0 | 0.00 | 0.00 | 0.00 | 49 | |
| 20260507190132 | 56 | 154 | 6.0 | 8.0 | 0.00 | 0.00 | 0.00 | 48 | |
| 20260507185631 | 56 | 174 | 7.0 | 9.0 | 0.00 | 0.00 | 0.00 | 46 | |
| 20260507185130 | 56 | 177 | 7.0 | 9.0 | 0.00 | 0.00 | 0.00 | 47 | |
| 20260507184629 | 56 | 159 | 7.0 | 8.0 | 0.00 | 0.00 | 0.00 | 49 | |
| 20260507184126 | 56 | 136 | 3.0 | 6.0 | 0.00 | 0.00 | 0.00 | 51 | |
| 20260507183625 | 56 | 109 | 3.0 | 6.0 | 0.00 | 0.00 | 0.00 | 50 | |
| 20260507183124 | 56 | 121 | 3.0 | 6.0 | 0.00 | 0.00 | 0.00 | 52 | |
| 20260507182623 | 57 | 107 | 2.0 | 5.0 | 0.00 | 0.00 | 0.00 | 53 | |
| 20260507182122 | 56 | 112 | 2.0 | 5.0 | 0.00 | 0.00 | 0.00 | 53 | |
| 20260507181619 | 57 | 105 | 2.0 | 5.0 | 0.00 | 0.00 | 0.00 | 53 | |
| 20260507181118 | 57 | 95 | 4.0 | 6.0 | 0.00 | 0.00 | 0.00 | 53 | |
| 20260507180617 | 57 | 91 | 4.0 | 5.0 | 0.00 | 0.00 | 0.00 | 51 | |
| 20260507180116 | 58 | 96 | 4.0 | 5.0 | 0.00 | 0.00 | 0.00 | 50 | |
| 20260507175615 | 58 | 91 | 4.0 | 4.0 | 0.00 | 0.00 | 0.00 | 49 | |
| 20260507175115 | 58 | 90 | 4.0 | 5.0 | 0.00 | 0.00 | 0.00 | 50 | |
| 20260507174614 | 59 | 90 | 3.0 | 4.0 | 0.00 | 0.00 | 0.00 | 50 | |
| 20260507174110 | 61 | 81 | 1.0 | 2.0 | 0.00 | 0.00 | 0.00 | 49 | |
| 20260507173609 | 61 | 166 | 1.0 | 3.0 | 0.00 | 0.00 | 0.00 | 49 | |
| 20260507173106 | 62 | 186 | 1.0 | 4.0 | 0.00 | 0.00 | 0.00 | 50 | |
| 20260507172605 | 63 | 217 | 2.0 | 6.0 | 0.00 | 0.00 | 0.00 | 54 | |
| 20260507172104 | 63 | 313 | 3.0 | 6.0 | 0.00 | 0.00 | 0.00 | 52 | |
| 20260507171603 | 64 | 25 | 1.0 | 6.0 | 0.00 | 0.00 | 0.00 | 56 | |
| 20260507171102 | 63 | 271 | 0.0 | 7.0 | 0.00 | 0.00 | 0.00 | 61 | |
| 20260507170559 | 62 | 257 | 3.0 | 7.0 | 0.00 | 0.00 | 0.00 | 64 | |
| 20260507170058 | 62 | 266 | 5.0 | 8.0 | 0.00 | 0.00 | 0.00 | 64 | |
| 20260507165557 | 62 | 259 | 4.0 | 9.0 | 0.00 | 0.00 | 0.00 | 67 | |
| 20260507165056 | 61 | 276 | 4.0 | 12.0 | 0.00 | 0.00 | 0.00 | 67 | |
| 20260507164555 | 60 | 267 | 7.0 | 12.0 | 0.00 | 0.00 | 0.00 | 68 | |
| 20260507164055 | 61 | 276 | 7.0 | 12.0 | 0.00 | 0.00 | 0.00 | 66 | |
| 20260507163554 | 61 | 274 | 7.0 | 13.0 | 0.00 | 0.00 | 0.00 | 66 | |
| 20260507163053 | 60 | 267 | 8.0 | 13.0 | 0.00 | 0.00 | 0.00 | 64 | |
| 20260507162552 | 60 | 245 | 6.0 | 12.0 | 0.00 | 0.00 | 0.00 | 64 | |
| 20260507162051 | 60 | 233 | 8.0 | 13.0 | 0.00 | 0.00 | 0.00 | 65 | |
| 20260507161550 | 60 | 262 | 10.0 | 14.0 | 0.00 | 0.00 | 0.00 | 63 | |
| 20260507161049 | 60 | 268 | 10.0 | 14.0 | 0.00 | 0.00 | 0.00 | 62 | |
| 20260507160549 | 60 | 277 | 8.0 | 15.0 | 0.00 | 0.00 | 0.00 | 59 | |
| 20260507160048 | 59 | 266 | 9.0 | 15.0 | 0.00 | 0.00 | 0.00 | 56 | |
| 20260507155046 | 58 | 268 | 11.0 | 15.0 | 0.00 | 0.00 | 0.00 | 56 | |
| 20260507154545 | 59 | 270 | 9.0 | 16.0 | 0.00 | 0.00 | 0.00 | 54 | |
| 20260507154044 | 60 | 260 | 11.0 | 16.0 | 0.00 | 0.00 | 0.00 | 53 | |
| 20260507153541 | 60 | 280 | 8.0 | 16.0 | 0.00 | 0.00 | 0.00 | 52 | |
| 20260507153040 | 59 | 270 | 8.0 | 16.0 | 0.00 | 0.00 | 0.00 | 56 | |
| 20260507152540 | 59 | 275 | 10.0 | 16.0 | 0.00 | 0.00 | 0.00 | 51 | |
| 20260507152038 | 59 | 267 | 10.0 | 16.0 | 0.00 | 0.00 | 0.00 | 53 | |
| 20260507151537 | 59 | 267 | 8.0 | 14.0 | 0.00 | 0.00 | 0.00 | 56 | |
| 20260507151036 | 59 | 277 | 6.0 | 14.0 | 0.00 | 0.00 | 0.00 | 57 | |
| 20260507150535 | 59 | 264 | 8.0 | 15.0 | 0.00 | 0.00 | 0.00 | 58 | |
| 20260507150034 | 58 | 259 | 10.0 | 17.0 | 0.00 | 0.00 | 0.00 | 58 | |
| 20260507145533 | 58 | 268 | 11.0 | 17.0 | 0.00 | 0.00 | 0.00 | 59 | |
| 20260507145032 | 59 | 275 | 10.0 | 16.0 | 0.00 | 0.00 | 0.00 | 59 | |
| 20260507144531 | 59 | 264 | 10.0 | 16.0 | 0.00 | 0.00 | 0.00 | 56 | |
| 20260507144031 | 59 | 271 | 9.0 | 15.0 | 0.00 | 0.00 | 0.00 | 57 | |
| 20260507143529 | 58 | 297 | 10.0 | 15.0 | 0.00 | 0.00 | 0.00 | 57 | |
| 20260507143029 | 59 | 266 | 9.0 | 15.0 | 0.00 | 0.00 | 0.00 | 59 | |
| 20260507142528 | 59 | 252 | 9.0 | 17.0 | 0.00 | 0.00 | 0.00 | 59 | |
| 20260507142027 | 59 | 245 | 10.0 | 17.0 | 0.00 | 0.00 | 0.00 | 59 | |
| 20260507141526 | 60 | 258 | 9.0 | 15.0 | 0.00 | 0.00 | 0.00 | 59 | |
| 20260507141025 | 60 | 256 | 10.0 | 15.0 | 0.00 | 0.00 | 0.00 | 55 | |
| 20260507140523 | 59 | 263 | 7.0 | 13.0 | 0.00 | 0.00 | 0.00 | 54 | |
| 20260507140019 | 59 | 270 | 7.0 | 14.0 | 0.00 | 0.00 | 0.00 | 57 | |
| 20260507135518 | 60 | 265 | 9.0 | 16.0 | 0.00 | 0.00 | 0.00 | 57 | |
| 20260507135018 | 60 | 254 | 10.0 | 16.0 | 0.00 | 0.00 | 0.00 | 57 | |
| 20260507134514 | 60 | 271 | 10.0 | 19.0 | 0.00 | 0.00 | 0.00 | 59 | |
| 20260507134013 | 60 | 258 | 11.0 | 19.0 | 0.00 | 0.00 | 0.00 | 58 | |
| 20260507133512 | 60 | 264 | 9.0 | 17.0 | 0.00 | 0.00 | 0.00 | 55 | |
| 20260507133010 | 60 | 257 | 11.0 | 17.0 | 0.00 | 0.00 | 0.00 | 57 | |
| 20260507132509 | 60 | 268 | 10.0 | 17.0 | 0.00 | 0.00 | 0.00 | 55 | |
| 20260507132009 | 60 | 244 | 10.0 | 15.0 | 0.00 | 0.00 | 0.00 | 54 | |
| 20260507131508 | 59 | 264 | 8.0 | 15.0 | 0.00 | 0.00 | 0.00 | 54 | |
| 20260507131007 | 59 | 274 | 8.0 | 15.0 | 0.00 | 0.00 | 0.00 | 58 | |
| 20260507130506 | 59 | 269 | 9.0 | 18.0 | 0.00 | 0.00 | 0.00 | 59 | |
| 20260507130005 | 59 | 252 | 11.0 | 18.0 | 0.00 | 0.00 | 0.00 | 62 | |
| 20260507125504 | 59 | 270 | 10.0 | 18.0 | 0.00 | 0.00 | 0.00 | 61 | |
| 20260507125003 | 59 | 260 | 8.0 | 16.0 | 0.00 | 0.00 | 0.00 | 60 | |
| 20260507124502 | 59 | 251 | 9.0 | 15.0 | 0.00 | 0.00 | 0.00 | 62 | |
| 20260507123959 | 59 | 253 | 9.0 | 15.0 | 0.00 | 0.00 | 0.00 | 62 | |
| 20260507123458 | 58 | 267 | 11.0 | 16.0 | 0.00 | 0.00 | 0.00 | 63 | |
| 20260507122957 | 59 | 263 | 11.0 | 16.0 | 0.00 | 0.00 | 0.00 | 64 | |
| 20260507122456 | 58 | 259 | 9.0 | 17.0 | 0.00 | 0.00 | 0.00 | 65 | |
| 20260507121955 | 58 | 265 | 9.0 | 17.0 | 0.00 | 0.00 | 0.00 | 64 | |
| 20260507121454 | 58 | 257 | 8.0 | 15.0 | 0.00 | 0.00 | 0.00 | 66 | |
| 20260507120953 | 58 | 269 | 8.0 | 17.0 | 0.00 | 0.00 | 0.00 | 67 | |
| 20260507120453 | 58 | 259 | 11.0 | 18.0 | 0.00 | 0.00 | 0.00 | 67 | |
| 20260507115952 | 58 | 261 | 11.0 | 18.0 | 0.00 | 0.00 | 0.00 | 67 | |
| 20260507115451 | 58 | 262 | 11.0 | 18.0 | 0.00 | 0.00 | 0.00 | 67 | |
| 20260507114950 | 59 | 247 | 9.0 | 14.0 | 0.00 | 0.00 | 0.00 | 67 | |
| 20260507114449 | 59 | 259 | 10.0 | 15.0 | 0.00 | 0.00 | 0.00 | 66 | |
| 20260507113948 | 59 | 233 | 9.0 | 15.0 | 0.00 | 0.00 | 0.00 | 65 | |
| 20260507113447 | 59 | 261 | 9.0 | 15.0 | 0.00 | 0.00 | 0.00 | 61 | |
| 20260507112946 | 60 | 256 | 8.0 | 13.0 | 0.00 | 0.00 | 0.00 | 61 | |
| 20260507112443 | 59 | 260 | 7.0 | 13.0 | 0.00 | 0.00 | 0.00 | 60 | |
| 20260507111942 | 59 | 230 | 9.0 | 14.0 | 0.00 | 0.00 | 0.00 | 60 | |
| 20260507111441 | 59 | 248 | 7.0 | 13.0 | 0.00 | 0.00 | 0.00 | 61 | |
| 20260507110940 | 59 | 263 | 8.0 | 15.0 | 0.00 | 0.00 | 0.00 | 62 | |
| 20260507110439 | 60 | 264 | 7.0 | 15.0 | 0.00 | 0.00 | 0.00 | 62 | |
| 20260507105938 | 60 | 244 | 7.0 | 14.0 | 0.00 | 0.00 | 0.00 | 60 | |
| 20260507105437 | 60 | 255 | 6.0 | 15.0 | 0.00 | 0.00 | 0.00 | 60 | |
| 20260507104936 | 60 | 258 | 6.0 | 11.0 | 0.00 | 0.00 | 0.00 | 60 | |
| 20260507104436 | 60 | 239 | 4.0 | 9.0 | 0.00 | 0.00 | 0.00 | 60 | |
| 20260507103934 | 59 | 281 | 5.0 | 12.0 | 0.00 | 0.00 | 0.00 | 60 | |
| 20260507103429 | 59 | 279 | 6.0 | 12.0 | 0.00 | 0.00 | 0.00 | 63 | |
| 20260507102928 | 59 | 275 | 7.0 | 12.0 | 0.00 | 0.00 | 0.00 | 61 | |
| 20260507102427 | 59 | 271 | 6.0 | 13.0 | 0.00 | 0.00 | 0.00 | 62 | |
| 20260507101927 | 60 | 267 | 8.0 | 13.0 | 0.00 | 0.00 | 0.00 | 62 | |
| 20260507101426 | 60 | 255 | 8.0 | 12.0 | 0.00 | 0.00 | 0.00 | 62 | |
| 20260507100925 | 59 | 263 | 6.0 | 11.0 | 0.00 | 0.00 | 0.00 | 62 | |
| 20260507100424 | 60 | 250 | 8.0 | 11.0 | 0.00 | 0.00 | 0.00 | 63 | |
| 20260507095923 | 60 | 265 | 8.0 | 12.0 | 0.00 | 0.00 | 0.00 | 64 | |
| 20260507095422 | 59 | 272 | 6.0 | 12.0 | 0.00 | 0.00 | 0.00 | 62 | |
| 20260507094919 | 60 | 239 | 6.0 | 13.0 | 0.00 | 0.00 | 0.00 | 63 | |
| 20260507094418 | 60 | 250 | 10.0 | 13.0 | 0.00 | 0.00 | 0.00 | 62 | |
| 20260507093917 | 60 | 262 | 8.0 | 11.0 | 0.00 | 0.00 | 0.00 | 60 | |
| 20260507093416 | 60 | 261 | 6.0 | 10.0 | 0.00 | 0.00 | 0.00 | 59 | |
| 20260507092913 | 61 | 265 | 8.0 | 10.0 | 0.00 | 0.00 | 0.00 | 59 | |
| 20260507092412 | 61 | 260 | 7.0 | 10.0 | 0.00 | 0.00 | 0.00 | 56 | |
| 20260507091910 | 63 | 238 | 5.0 | 10.0 | 0.00 | 0.00 | 0.00 | 53 | |
| 20260507091409 | 64 | 224 | 3.0 | 7.0 | 0.00 | 0.00 | 0.00 | 51 | |
| 20260507090908 | 62 | 208 | 3.0 | 6.0 | 0.00 | 0.00 | 0.00 | 49 | |
| 20260507090407 | 62 | 252 | 3.0 | 7.0 | 0.00 | 0.00 | 0.00 | 47 | |
| 20260507085907 | 62 | 257 | 5.0 | 7.0 | 0.00 | 0.00 | 0.00 | 46 | |
| 20260507085406 | 63 | 241 | 5.0 | 7.0 | 0.00 | 0.00 | 0.00 | 48 | |
| 20260507084905 | 64 | 274 | 3.0 | 6.0 | 0.00 | 0.00 | 0.00 | 48 | |
| 20260507084401 | 66 | 294 | 3.0 | 5.0 | 0.00 | 0.00 | 0.00 | 45 | |
| 20260507083901 | 66 | 166 | 2.0 | 7.0 | 0.00 | 0.00 | 0.00 | 46 | |
| 20260507083400 | 65 | 127 | 2.0 | 6.0 | 0.00 | 0.00 | 0.00 | 45 | |
| 20260507082859 | 64 | 203 | 2.0 | 6.0 | 0.00 | 0.00 | 0.00 | 44 | |
| 20260507082358 | 64 | 248 | 3.0 | 5.0 | 0.00 | 0.00 | 0.00 | 46 | |
| 20260507081854 | 64 | 256 | 2.0 | 6.0 | 0.00 | 0.00 | 0.00 | 44 | |
| 20260507081351 | 64 | 270 | 3.0 | 6.0 | 0.00 | 0.00 | 0.00 | 43 | |
| 20260507080850 | 64 | 268 | 2.0 | 6.0 | 0.00 | 0.00 | 0.00 | 41 | |
| 20260507080349 | 64 | 257 | 3.0 | 6.0 | 0.00 | 0.00 | 0.00 | 43 | |
| 20260507075848 | 66 | 315 | 4.0 | 6.0 | 0.00 | 0.00 | 0.00 | 39 | |
| 20260507075347 | 65 | 43 | 4.0 | 7.0 | 0.00 | 0.00 | 0.00 | 42 | |
| 20260507074847 | 66 | 43 | 3.0 | 7.0 | 0.00 | 0.00 | 0.00 | 40 | |
| 20260507074343 | 66 | 41 | 2.0 | 5.0 | 0.00 | 0.00 | 0.00 | 42 | |
| 20260507073842 | 64 | 312 | 1.0 | 5.0 | 0.00 | 0.00 | 0.00 | 44 | |
| 20260507073341 | 65 | 35 | 3.0 | 6.0 | 0.00 | 0.00 | 0.00 | 42 | |
| 20260507072840 | 64 | 42 | 3.0 | 6.0 | 0.00 | 0.00 | 0.00 | 42 | |
| 20260507072340 | 65 | 57 | 3.0 | 6.0 | 0.00 | 0.00 | 0.00 | 43 | |
| 20260507071839 | 66 | 346 | 2.0 | 6.0 | 0.00 | 0.00 | 0.00 | 45 | |
| 20260507071338 | 66 | 27 | 2.0 | 6.0 | 0.00 | 0.00 | 0.00 | 46 | |
| 20260507070837 | 66 | 36 | 2.0 | 6.0 | 0.00 | 0.00 | 0.00 | 45 | |
| 20260507070336 | 67 | 159 | 2.0 | 3.0 | 0.00 | 0.00 | 0.00 | 44 | |
| 20260507065835 | 65 | 125 | 1.0 | 3.0 | 0.00 | 0.00 | 0.00 | 45 |